CZ-6A DEB, 55901

Orbit data source: Space-Track

CZ-6A DEB, 55901 is space debris in SSO originally from a launch on Fri, 11 Nov 2022 UTC launched from the Taiyaun Space Center, China (TSC). Debris objects in space refer to the collection of defunct objects orbiting the Earth. Examples of debris include non-operational satellites, rocket bodies, and fragments generated from explosions, collisions, or faulty payload assembly.

Loading next visibility...
Identifier
55901, 2022-151AAZ
Orbit
SSO
Country
Flag of CNCN / PRC
Related business
Manufacturer
SAST
Mission
Spacecraft
Bus & Motor
Unknown
Mass
Unknown
Launch date (UTC)
2022-11-11 (3 years ago)
Launch vehicle
Unknown
Launch site
Taiyaun Space Center, China (TSC)
Object type
Payload
Rocket body
Debris
Shape & HBR
Unknown shape, 0.1 m
Radar Cross Section
Small (<0.1 m²)

Expand to show TLE details & history
Last TLE update: 6 days ago

TLE from 6 days ago
0 CZ-6A DEB
1 55901U 22151AAZ 26124.37440585  .00000250  00000-0  18224-3 0  9999
2 55901  98.8703 110.7154 0080994 152.8975 207.6455 14.03345916171535
Epoch: 2026-05-04T08:59Z
TLE epoch observation values (Epoch: 2026-05-04T08:59:08.665Z)
Latitude
-0.00002°
Longitude
113.66478°
Altitude
937.322 km
Speed
7.357 km/s
True Right ascension
07h 22m 51s
True Declination
0° 00' 00"
Sunlit
Object was in daylight at epoch
Visualization orbit readout
Latitude
Unknown
Longitude
Unknown
Altitude
Unknown
Speed
Unknown
Apparent Right ascension
Unknown
Apparent Declination
Unknown
Sunlit
N/A
Visualization observer readout
Local Sidereal Time
02:46:57
Azimuth
Unknown
Elevation
Unknown
Doppler factor
Unknown
Orbital elements
Apogee altitude
938.202 km
Perigee altitude
820.638 km
Semi-major axis
7,257.557 km
Eccentricity
0.0081
Inclination
98.8703°
RAAN
110.7154°
Arg. of periapsis
152.8975°
True anomaly
207.21868°
Mean anomaly
207.6455°
Eccentric anomaly
207.43171°
Mean motion
3.51041 °/min
Orbital period
102.55 mins
BSTAR
0.00018224
Loading maneuver chart data...
Computing Atmospheric mass density...
Loading historical data...
Loading historical data...
Loading historical data...
Loading historical data...
Loading historical data...
Loading historical data...
Loading historical data...

Documentation

Showing up to 5 results
|